Location: Riverside Cemetery
(38.3047°N, 99.7773°W)
Time: 03:45:18
(UTC+00:00)

CSL-04 Rocket - Pass Details

Date: 19 September 2020
Orbit: 806 x 860 km, 98.9° (Epoch: 22 October)

Event Time Altitude Azimuth Distance (km) Brightness Sun altitude
Rises 01:10:21 0° 149° (SSE) 3,346 6.4 -6.5°
Reaches altitude 10° 01:12:44 10° 144° (SE) 2,425 5.7 -6.9°
Maximum altitude 01:17:54 49° 71° (ENE) 1,066 3.9 -8.0°
Drops below altitude 10° 01:23:09 10° 358° (N) 2,474 6.3 -9.0°
Sets 01:25:36 0° 353° (N) 3,420 7.1 -9.4°
